Location: Ceske Budejovice
(48.9830°N, 14.4670°E)
Time: 15:05:50
(UTC+01:00)

ISS - Visible Passes

Search period start: 24 March 2017 00:00
Search period end: 03 April 2017 01:00
Orbit: 399 x 409 km, 51.6° (Epoch: 24 March)

Date Brightness Start Highest point End Pass type
(mag) Time Alt. Az. Time Alt. Az. Time Alt. Az.
27 Mar -1.6 20:17:45 10° SE 20:18:23 10° SE 20:18:23 10° SE visible
27 Mar -0.9 21:51:05 10° SW 21:51:06 10° SW 21:51:06 10° SW visible
28 Mar -3.0 20:59:00 10° SSW 21:01:47 32° SSE 21:01:47 32° SSE visible
29 Mar -2.3 20:07:12 10° SSW 20:09:43 21° SE 20:12:13 10° E visible
29 Mar -2.9 21:42:35 10° WSW 21:44:54 43° WSW 21:44:54 43° WSW visible
30 Mar -3.8 20:50:14 10° SW 20:53:26 60° SSE 20:55:05 26° E visible
30 Mar -1.1 22:26:46 10° W 22:27:46 18° W 22:27:46 18° W visible
31 Mar -3.2 19:58:02 10° SW 20:01:05 38° SSE 20:04:10 10° ENE visible
31 Mar -3.6 21:34:14 10° W 21:37:28 64° NNW 21:37:46 59° NNE visible
01 Apr -3.8 20:41:43 10° WSW 20:44:59 83° NNW 20:47:38 15° ENE visible
01 Apr -1.8 22:18:27 10° WNW 22:20:17 28° WNW 22:20:17 28° WNW visible
02 Apr -3.2 21:25:53 10° W 21:29:06 52° N 21:30:02 37° NE visible
02 Apr -0.5 23:02:32 10° WNW 23:02:40 11° WNW 23:02:40 11° WNW visible
